Flag for Germany Weather past 2 weeks in Leonberg, Baden-Württemberg, Germany

54 °F

Partly cloudy.

Feels Like: 54 °F
Forecast: 43 / 60 °F
Wind: 2 mph from North

Location: Stuttgart-Echterdingen

Current Time: Oct 9, 2015 at 10:51:08 PM

Latest Report: Oct 9, 2015 at 10:20 PM

Visibility: N/A

Pressure: 30.09 "Hg

Humidity: 88%

Dew point: 50 °F

Location of LeonbergLocation

Historic Weather in Leonberg — Graph


Leonberg temperature yesterday

Maximum temperature yesterday: 59 °F (at 12:20 PM)
Minimum temperature yesterday: 48 °F (at 5:20 AM)
Average temperature yesterday: 54 °F

Past Weeks' High & Low Weather Summary

High72 °F (Oct 3, 3:50 PM)100% (Sep 25, 8:20 AM)30.51 "Hg (Sep 25, 8:20 AM)
Low41 °F (Oct 1, 4:50 AM)32% (Sep 30, 3:50 PM)29.74 "Hg (Oct 6, 9:50 AM)
Average55 °F72%30.17 "Hg
* Reported Sep 24 9:20 PM — Oct 9 9:20 PM, Leonberg, Weather by CustomWeather, © 2015

Note: Actual official high and low records may vary slightly from our data, if they occured in-between our weather recording intervals... More about our weather records


Leonberg weather history for previous 24 hours

Time TempWeatherWind HumidityBarometerVisibility
9:20 PM
Fri, Oct 9
54 °FPassing clouds.2 mph88%30.09 "HgN/A
8:50 PM54 °FPassing clouds.1 mph82%30.09 "HgN/A
8:20 PM55 °FPassing clouds.6 mph82%30.09 "HgN/A
7:50 PM55 °FPassing clouds.7 mph82%30.09 "HgN/A
7:20 PM57 °FPassing clouds.6 mph77%30.09 "HgN/A
6:50 PM57 °FPassing clouds.7 mph77%30.09 "HgN/A
6:20 PM57 °FBroken clouds.7 mph77%30.09 "HgN/A
5:50 PM59 °FBroken clouds.8 mph68%30.09 "HgN/A
5:20 PM59 °FBroken clouds.8 mph68%30.09 "HgN/A
4:20 PM61 °FPartly sunny.8 mph63%30.09 "HgN/A
3:50 PM61 °FPartly sunny.7 mph63%30.09 "HgN/A
3:20 PM59 °FPartly sunny.6 mph63%30.09 "HgN/A
2:50 PM59 °FPartly sunny.5 mph68%30.09 "HgN/A
2:20 PM59 °FPartly sunny.7 mph68%30.09 "HgN/A
1:50 PM59 °FPartly sunny.7 mph68%30.09 "HgN/A
1:20 PM59 °FPartly sunny.3 mph68%30.12 "HgN/A
12:50 PM57 °FBroken clouds.3 mph72%30.12 "HgN/A
12:20 PM57 °FBroken clouds.2 mph72%30.12 "HgN/A
11:50 AM57 °FScattered clouds.2 mph77%30.12 "HgN/A
11:20 AM55 °FPartly sunny.2 mph82%30.12 "HgN/A
10:50 AM54 °FPartly sunny.2 mph88%30.15 "HgN/A
10:20 AM54 °FPartly sunny.1 mph88%30.15 "HgN/A
9:50 AM52 °FPartly sunny.1 mph94%30.12 "HgN/A
9:20 AM50 °FPartly sunny.1 mph94%30.12 "HgN/A
8:50 AM50 °FPartly sunny.No wind94%30.12 "HgN/A
8:20 AM48 °FPartly cloudy.No wind100%30.12 "HgN/A
7:50 AM48 °FPassing clouds.1 mph100%30.12 "HgN/A
7:20 AM48 °FPassing clouds.1 mph94%30.12 "HgN/A
6:50 AM50 °FPassing clouds.1 mph88%30.12 "HgN/A
6:20 AM50 °FClear.1 mph94%30.12 "Hg10 mi
5:50 AM48 °FClear.1 mph94%30.12 "Hg10 mi
5:20 AM50 °FPassing clouds.No wind88%30.12 "HgN/A
4:50 AM50 °FPassing clouds.1 mph88%30.12 "HgN/A
4:20 AM50 °FClear.1 mph94%30.12 "Hg10 mi
3:50 AM50 °FClear.3 mph88%30.12 "Hg10 mi
3:20 AM50 °FClear.5 mph94%30.15 "Hg10 mi
2:50 AM50 °FClear.2 mph94%30.15 "Hg10 mi
2:20 AM50 °FClear.2 mph88%30.15 "Hg10 mi
1:50 AM50 °FClear.2 mph94%30.15 "Hg10 mi
1:20 AM50 °FClear.2 mph94%30.15 "Hg10 mi
12:50 AM50 °FClear.2 mph88%30.15 "Hg10 mi
12:20 AM52 °FClear.3 mph88%30.15 "Hg10 mi
11:20 PM
Thu, Oct 8
54 °FClear.1 mph82%30.15 "Hg10 mi
10:50 PM54 °FClear.2 mph77%30.15 "Hg10 mi
10:20 PM54 °FClear.2 mph77%30.15 "Hg10 mi
Weather by CustomWeather, © 2015

See weather overviewHow to use our weather pages